カタログに戻る

DELTA 1 DEB

運用中PO
NORAD 21290·DEBRIS·🇺🇸 United States

打ち上げ Jun 12, 1975 から Vandenberg Space Force Base

Loading…

次のパス (今後24時間)

TLE

最新Source: Space-Track

元期: Sep 14, 2026, 14:54 UTC

1 21290U 75052AB  26257.62121931  .00000009  00000-0  19047-3 0  9993
2 21290  99.5382 141.0523 0512232 344.2935  40.9027 12.43362454603952

AllMySatでDELTA 1 DEBをリアルタイム追跡

Download on the App Store